| time (UTC) | temp F | wind direction | speed MPH | gust MPH | rain 1hr in | rain 24hr in | rain mn in | humidity % | barometer mb |
| 20260507090505 | 49 | 343 | 0.0 | 0.0 | 0.00 | 0.00 | 0.00 | 76 | 1021.5 |
| 20260507090005 | 50 | 343 | 0.0 | 0.0 | 0.00 | 0.00 | 0.00 | 74 | 1021.5 |
| 20260507085504 | 50 | 343 | 0.0 | 0.0 | 0.00 | 0.00 | 0.00 | 74 | 1021.5 |
| 20260507085005 | 50 | 343 | 0.0 | 0.0 | 0.00 | 0.00 | 0.00 | 74 | 1021.5 |
| 20260507084505 | 50 | 343 | 0.0 | 0.0 | 0.00 | 0.00 | 0.00 | 70 | 1021.5 |
| 20260507084005 | 51 | 343 | 0.0 | 0.0 | 0.00 | 0.00 | 0.00 | 70 | 1021.5 |
| 20260507083505 | 51 | 343 | 0.0 | 0.0 | 0.00 | 0.00 | 0.00 | 71 | 1021.5 |
| 20260507083005 | 51 | 343 | 0.0 | 0.0 | 0.00 | 0.00 | 0.00 | 70 | 1021.5 |
| 20260507082504 | 51 | 343 | 0.0 | 0.0 | 0.00 | 0.00 | 0.00 | 69 | 1021.6 |
| 20260507082004 | 50 | 343 | 0.0 | 0.0 | 0.00 | 0.00 | 0.00 | 72 | 1021.6 |
| 20260507081504 | 51 | 343 | 0.0 | 0.0 | 0.00 | 0.00 | 0.00 | 71 | 1021.6 |
| 20260507081005 | 51 | 343 | 0.0 | 0.0 | 0.00 | 0.00 | 0.00 | 73 | 1021.6 |
| 20260507080504 | 51 | 343 | 0.0 | 0.0 | 0.00 | 0.00 | 0.00 | 71 | 1021.5 |
| 20260507080005 | 51 | 343 | 0.0 | 0.0 | 0.00 | 0.00 | 0.00 | 71 | 1021.4 |
| 20260507075505 | 51 | 343 | 0.0 | 0.0 | 0.00 | 0.00 | 0.00 | 73 | 1021.4 |
| 20260507075005 | 51 | 343 | 0.0 | 0.0 | 0.00 | 0.00 | 0.00 | 72 | 1021.4 |
| 20260507074504 | 52 | 343 | 0.0 | 0.0 | 0.00 | 0.00 | 0.00 | 70 | 1021.4 |
| 20260507074005 | 52 | 343 | 0.0 | 0.0 | 0.00 | 0.00 | 0.00 | 68 | 1021.4 |
| 20260507073505 | 52 | 343 | 0.0 | 0.0 | 0.00 | 0.00 | 0.00 | 67 | 1021.4 |
| 20260507073004 | 52 | 343 | 0.0 | 0.0 | 0.00 | 0.00 | 0.00 | 67 | 1021.4 |
| 20260507072505 | 52 | 343 | 0.0 | 0.0 | 0.00 | 0.00 | 0.00 | 69 | 1021.2 |
| 20260507072005 | 53 | 343 | 0.0 | 0.0 | 0.00 | 0.00 | 0.00 | 68 | 1021.2 |
| 20260507071504 | 53 | 343 | 0.0 | 0.0 | 0.00 | 0.00 | 0.00 | 66 | 1021.2 |
| 20260507071005 | 53 | 343 | 0.0 | 0.0 | 0.00 | 0.00 | 0.00 | 64 | 1021.1 |
| 20260507070505 | 53 | 343 | 0.0 | 0.0 | 0.00 | 0.00 | 0.00 | 65 | 1021.1 |
| 20260507070009 | 52 | 343 | 0.0 | 0.0 | 0.00 | 0.00 | 0.00 | 67 | 1021.1 |
| 20260507065504 | 52 | 343 | 0.0 | 0.0 | 0.00 | 0.00 | 0.00 | 70 | 1021.0 |
| 20260507065004 | 52 | 343 | 0.0 | 0.0 | 0.00 | 0.00 | 0.00 | 71 | 1020.9 |
| 20260507064504 | 52 | 343 | 0.0 | 0.0 | 0.00 | 0.00 | 0.00 | 71 | 1020.9 |
| 20260507063504 | 53 | 343 | 0.0 | 0.0 | 0.00 | 0.00 | 0.00 | 68 | 1020.8 |
| 20260507063004 | 53 | 343 | 0.0 | 0.0 | 0.00 | 0.00 | 0.00 | 67 | 1020.6 |
| 20260507062504 | 53 | 343 | 0.0 | 0.0 | 0.00 | 0.00 | 0.00 | 67 | 1020.6 |
| 20260507062004 | 54 | 343 | 0.0 | 0.0 | 0.00 | 0.00 | 0.00 | 65 | 1020.5 |
| 20260507061504 | 54 | 343 | 0.0 | 0.0 | 0.00 | 0.00 | 0.00 | 66 | 1020.4 |
| 20260507061004 | 54 | 343 | 0.0 | 0.0 | 0.00 | 0.00 | 0.00 | 64 | 1020.4 |
| 20260507060504 | 55 | 343 | 0.0 | 0.0 | 0.00 | 0.00 | 0.00 | 63 | 1020.4 |
| 20260507060004 | 55 | 343 | 0.0 | 0.0 | 0.00 | 0.00 | 0.00 | 59 | 1020.4 |
| 20260507055504 | 55 | 343 | 0.0 | 0.0 | 0.00 | 0.00 | 0.00 | 60 | 1020.5 |
| 20260507055005 | 56 | 343 | 0.0 | 0.0 | 0.00 | 0.00 | 0.00 | 59 | 1020.5 |
| 20260507054505 | 56 | 343 | 0.0 | 0.0 | 0.00 | 0.00 | 0.00 | 58 | 1020.6 |
| 20260507054005 | 56 | 343 | 0.0 | 0.0 | 0.00 | 0.00 | 0.00 | 57 | 1020.7 |
| 20260507052004 | 59 | 343 | 0.0 | 0.0 | 0.00 | 0.00 | 0.00 | 51 | 1021.0 |
| 20260507051504 | 59 | 343 | 0.0 | 0.0 | 0.00 | 0.00 | 0.00 | 48 | 1021.1 |
| 20260507051004 | 59 | 343 | 0.0 | 0.0 | 0.00 | 0.00 | 0.00 | 46 | 1021.1 |
| 20260507050504 | 59 | 343 | 0.0 | 0.0 | 0.00 | 0.00 | 0.00 | 47 | 1021.1 |
| 20260507050005 | 59 | 343 | 0.0 | 0.0 | 0.00 | 0.00 | 0.00 | 46 | 1021.0 |
| 20260507045504 | 59 | 343 | 0.0 | 0.0 | 0.00 | 0.00 | 0.00 | 46 | 1021.0 |
| 20260507044504 | 58 | 343 | 0.0 | 0.0 | 0.00 | 0.00 | 0.00 | 49 | 1020.9 |
| 20260507044005 | 58 | 343 | 0.0 | 0.0 | 0.00 | 0.00 | 0.00 | 51 | 1020.9 |
| 20260507043505 | 59 | 343 | 0.0 | 0.0 | 0.00 | 0.00 | 0.00 | 50 | 1020.9 |
| 20260507043004 | 59 | 343 | 0.0 | 0.0 | 0.00 | 0.00 | 0.00 | 49 | 1020.8 |
| 20260507042004 | 59 | 343 | 0.0 | 0.0 | 0.00 | 0.00 | 0.00 | 49 | 1020.8 |
| 20260507041504 | 59 | 343 | 0.0 | 0.0 | 0.00 | 0.00 | 0.00 | 48 | 1020.8 |
| 20260507041004 | 59 | 343 | 0.0 | 0.0 | 0.00 | 0.00 | 0.00 | 48 | 1020.6 |
| 20260507040505 | 59 | 343 | 0.0 | 0.0 | 0.00 | 0.00 | 0.00 | 50 | 1020.5 |
| 20260507040004 | 60 | 343 | 0.0 | 0.0 | 0.00 | 0.00 | 0.00 | 52 | 1020.4 |
| 20260507035504 | 60 | 343 | 0.0 | 0.0 | 0.00 | 0.00 | 0.00 | 53 | 1020.4 |
| 20260507035004 | 61 | 343 | 0.0 | 0.0 | 0.00 | 0.00 | 0.00 | 52 | 1020.4 |
| 20260507034505 | 61 | 343 | 0.0 | 0.0 | 0.00 | 0.00 | 0.00 | 49 | 1020.3 |
| 20260507034005 | 62 | 343 | 0.0 | 0.0 | 0.00 | 0.00 | 0.00 | 48 | 1020.3 |
| 20260507033504 | 62 | 343 | 0.0 | 0.0 | 0.00 | 0.00 | 0.00 | 48 | 1020.2 |
| 20260507033005 | 63 | 343 | 0.0 | 0.0 | 0.00 | 0.00 | 0.00 | 46 | 1020.2 |
| 20260507032505 | 63 | 343 | 0.0 | 0.0 | 0.00 | 0.00 | 0.00 | 46 | 1020.2 |
| 20260507032004 | 63 | 343 | 0.0 | 0.0 | 0.00 | 0.00 | 0.00 | 50 | 1020.0 |
| 20260507031506 | 63 | 343 | 0.0 | 0.0 | 0.00 | 0.00 | 0.00 | 54 | 1020.0 |
| 20260507031004 | 64 | 343 | 0.0 | 0.0 | 0.00 | 0.00 | 0.00 | 53 | 1020.0 |
| 20260507030504 | 64 | 343 | 0.0 | 0.0 | 0.00 | 0.00 | 0.00 | 51 | 1019.9 |
| 20260507030004 | 65 | 343 | 0.0 | 0.0 | 0.00 | 0.00 | 0.00 | 50 | 1019.9 |
| 20260507025505 | 65 | 343 | 0.0 | 0.0 | 0.00 | 0.00 | 0.00 | 49 | 1019.8 |
| 20260507025004 | 66 | 343 | 0.0 | 0.0 | 0.00 | 0.00 | 0.00 | 47 | 1019.7 |
| 20260507024504 | 66 | 343 | 0.0 | 0.0 | 0.00 | 0.00 | 0.00 | 46 | 1019.8 |
| 20260507024005 | 67 | 343 | 0.0 | 0.0 | 0.00 | 0.00 | 0.00 | 44 | 1019.7 |
| 20260507022504 | 71 | 343 | 0.0 | 0.0 | 0.00 | 0.00 | 0.00 | 37 | 1019.4 |
| 20260507022005 | 72 | 343 | 0.0 | 0.0 | 0.00 | 0.00 | 0.00 | 32 | 1019.4 |
| 20260507021505 | 73 | 343 | 0.0 | 0.0 | 0.00 | 0.00 | 0.00 | 26 | 1019.4 |
| 20260507021005 | 73 | 343 | 0.0 | 0.0 | 0.00 | 0.00 | 0.00 | 22 | 1019.4 |
| 20260507020504 | 74 | 343 | 0.0 | 0.0 | 0.00 | 0.00 | 0.00 | 21 | 1019.4 |
| 20260507020005 | 74 | 343 | 0.0 | 7.0 | 0.00 | 0.00 | 0.00 | 21 | 1019.4 |
| 20260507015505 | 74 | 338 | 2.0 | 6.0 | 0.00 | 0.00 | 0.00 | 21 | 1019.4 |
| 20260507015004 | 74 | 7 | 0.0 | 2.0 | 0.00 | 0.00 | 0.00 | 20 | 1019.4 |
| 20260507014504 | 74 | 344 | 4.0 | 7.0 | 0.00 | 0.00 | 0.00 | 20 | 1019.3 |
| 20260507014004 | 75 | 338 | 1.0 | 8.0 | 0.00 | 0.00 | 0.00 | 20 | 1019.3 |
| 20260507013505 | 74 | 127 | 0.0 | 0.0 | 0.00 | 0.00 | 0.00 | 20 | 1019.3 |
| 20260507013004 | 75 | 127 | 0.0 | 0.0 | 0.00 | 0.00 | 0.00 | 18 | 1019.3 |
| 20260507012504 | 75 | 127 | 1.0 | 6.0 | 0.00 | 0.00 | 0.00 | 17 | 1019.3 |
| 20260507012004 | 75 | 264 | 0.0 | 0.0 | 0.00 | 0.00 | 0.00 | 18 | 1019.3 |
| 20260507011504 | 76 | 264 | 0.0 | 8.0 | 0.00 | 0.00 | 0.00 | 19 | 1019.3 |
| 20260507010504 | 76 | 20 | 0.0 | 6.0 | 0.00 | 0.00 | 0.00 | 17 | 1019.4 |
| 20260507005504 | 76 | 11 | 1.0 | 6.0 | 0.00 | 0.00 | 0.00 | 17 | 1019.4 |
| 20260507005004 | 76 | 83 | 1.0 | 6.0 | 0.00 | 0.00 | 0.00 | 16 | 1019.4 |
| 20260507004504 | 76 | 357 | 3.0 | 8.0 | 0.00 | 0.00 | 0.00 | 16 | 1019.4 |
| 20260507004005 | 77 | 37 | 4.0 | 9.0 | 0.00 | 0.00 | 0.00 | 16 | 1019.4 |
| 20260507003005 | 76 | 323 | 0.0 | 6.0 | 0.00 | 0.00 | 0.00 | 17 | 1019.4 |
| 20260507002504 | 76 | 53 | 6.0 | 9.0 | 0.00 | 0.00 | 0.00 | 17 | 1019.4 |
| 20260507001504 | 76 | 130 | 1.0 | 5.0 | 0.00 | 0.00 | 0.00 | 16 | 1019.3 |
| 20260507001004 | 77 | 57 | 4.0 | 8.0 | 0.00 | 0.00 | 0.00 | 16 | 1019.4 |
| 20260507000505 | 77 | 31 | 6.0 | 13.0 | 0.00 | 0.00 | 0.00 | 17 | 1019.6 |
| 20260507000005 | 77 | 354 | 0.0 | 7.0 | 0.00 | 0.00 | 0.00 | 17 | 1019.4 |
| 20260506235005 | 77 | 60 | 2.0 | 8.0 | 0.00 | 0.00 | 0.00 | 17 | 1019.4 |
| 20260506234504 | 77 | 81 | 5.0 | 10.0 | 0.00 | 0.00 | 0.00 | 17 | 1019.4 |
| 20260506234004 | 77 | 105 | 3.0 | 7.0 | 0.00 | 0.00 | 0.00 | 16 | 1019.4 |
| 20260506233504 | 77 | 128 | 5.0 | 12.0 | 0.00 | 0.00 | 0.00 | 16 | 1019.5 |
| 20260506233005 | 77 | 135 | 4.0 | 9.0 | 0.00 | 0.00 | 0.00 | 15 | 1019.4 |
| 20260506232504 | 77 | 57 | 6.0 | 10.0 | 0.00 | 0.00 | 0.00 | 18 | 1019.6 |
| 20260506232004 | 77 | 58 | 1.0 | 5.0 | 0.00 | 0.00 | 0.00 | 18 | 1019.6 |
| 20260506231504 | 77 | 70 | 2.0 | 7.0 | 0.00 | 0.00 | 0.00 | 16 | 1019.6 |
| 20260506231005 | 78 | 86 | 5.0 | 9.0 | 0.00 | 0.00 | 0.00 | 18 | 1019.7 |
| 20260506230505 | 77 | 91 | 4.0 | 9.0 | 0.00 | 0.00 | 0.00 | 18 | 1019.7 |
| 20260506230004 | 77 | 40 | 4.0 | 13.0 | 0.00 | 0.00 | 0.00 | 18 | 1019.8 |
| 20260506225504 | 77 | 20 | 2.0 | 9.0 | 0.00 | 0.00 | 0.00 | 17 | 1019.8 |
| 20260506224504 | 77 | 90 | 3.0 | 9.0 | 0.00 | 0.00 | 0.00 | 18 | 1019.9 |
| 20260506224004 | 77 | 27 | 6.0 | 12.0 | 0.00 | 0.00 | 0.00 | 18 | 1020.0 |
| 20260506223504 | 77 | 123 | 2.0 | 7.0 | 0.00 | 0.00 | 0.00 | 18 | 1020.1 |
| 20260506223004 | 76 | 101 | 3.0 | 7.0 | 0.00 | 0.00 | 0.00 | 19 | 1020.2 |
| 20260506222004 | 78 | 25 | 4.0 | 14.0 | 0.00 | 0.00 | 0.00 | 17 | 1020.4 |
| 20260506221504 | 78 | 33 | 3.0 | 10.0 | 0.00 | 0.00 | 0.00 | 16 | 1020.5 |
| 20260506220504 | 78 | 112 | 6.0 | 13.0 | 0.00 | 0.00 | 0.00 | 16 | 1020.6 |
| 20260506220005 | 78 | 39 | 5.0 | 9.0 | 0.00 | 0.00 | 0.00 | 18 | 1020.8 |
| 20260506215504 | 77 | 26 | 6.0 | 10.0 | 0.00 | 0.00 | 0.00 | 19 | 1020.8 |
| 20260506215006 | 77 | 46 | 6.0 | 16.0 | 0.00 | 0.00 | 0.00 | 18 | 1020.9 |
| 20260506214505 | 77 | 7 | 2.0 | 12.0 | 0.00 | 0.00 | 0.00 | 18 | 1020.9 |
| 20260506214004 | 77 | 346 | 4.0 | 12.0 | 0.00 | 0.00 | 0.00 | 18 | 1020.9 |
| 20260506213504 | 77 | 22 | 10.0 | 15.0 | 0.00 | 0.00 | 0.00 | 18 | 1021.0 |
| 20260506212505 | 77 | 27 | 3.0 | 10.0 | 0.00 | 0.00 | 0.00 | 19 | 1021.0 |
| 20260506212005 | 77 | 359 | 6.0 | 10.0 | 0.00 | 0.00 | 0.00 | 18 | 1021.0 |
| 20260506211504 | 77 | 27 | 7.0 | 13.0 | 0.00 | 0.00 | 0.00 | 18 | 1021.0 |
| 20260506211004 | 77 | 55 | 7.0 | 12.0 | 0.00 | 0.00 | 0.00 | 20 | 1021.1 |
| 20260506210505 | 77 | 99 | 5.0 | 9.0 | 0.00 | 0.00 | 0.00 | 20 | 1021.1 |
| 20260506210004 | 77 | 28 | 5.0 | 12.0 | 0.00 | 0.00 | 0.00 | 22 | 1021.1 |
| 20260506205504 | 77 | 357 | 5.0 | 12.0 | 0.00 | 0.00 | 0.00 | 19 | 1021.1 |
| 20260506205004 | 77 | 44 | 7.0 | 13.0 | 0.00 | 0.00 | 0.00 | 20 | 1021.1 |
| 20260506204504 | 77 | 29 | 4.0 | 12.0 | 0.00 | 0.00 | 0.00 | 22 | 1021.2 |
| 20260506203505 | 77 | 47 | 6.0 | 12.0 | 0.00 | 0.00 | 0.00 | 19 | 1021.2 |
| 20260506203004 | 76 | 17 | 6.0 | 12.0 | 0.00 | 0.00 | 0.00 | 23 | 1021.3 |
| 20260506202504 | 76 | 116 | 5.0 | 12.0 | 0.00 | 0.00 | 0.00 | 22 | 1021.2 |
| 20260506202004 | 76 | 120 | 6.0 | 10.0 | 0.00 | 0.00 | 0.00 | 22 | 1021.4 |
| 20260506201504 | 75 | 237 | 7.0 | 13.0 | 0.00 | 0.00 | 0.00 | 21 | 1021.4 |
| 20260506200504 | 75 | 20 | 7.0 | 13.0 | 0.00 | 0.00 | 0.00 | 21 | 1021.5 |
| 20260506200005 | 75 | 44 | 9.0 | 14.0 | 0.00 | 0.00 | 0.00 | 20 | 1021.5 |
| 20260506195505 | 74 | 43 | 5.0 | 9.0 | 0.00 | 0.00 | 0.00 | 23 | 1021.5 |
| 20260506194504 | 75 | 39 | 6.0 | 12.0 | 0.00 | 0.00 | 0.00 | 23 | 1021.6 |
| 20260506194005 | 75 | 21 | 9.0 | 17.0 | 0.00 | 0.00 | 0.00 | 23 | 1021.6 |
| 20260506193504 | 74 | 60 | 5.0 | 13.0 | 0.00 | 0.00 | 0.00 | 24 | 1021.6 |
| 20260506193004 | 74 | 54 | 8.0 | 13.0 | 0.00 | 0.00 | 0.00 | 23 | 1021.6 |
| 20260506192504 | 74 | 147 | 4.0 | 13.0 | 0.00 | 0.00 | 0.00 | 24 | 1021.6 |
| 20260506192004 | 74 | 64 | 5.0 | 10.0 | 0.00 | 0.00 | 0.00 | 26 | 1021.6 |
| 20260506191505 | 74 | 78 | 5.0 | 10.0 | 0.00 | 0.00 | 0.00 | 27 | 1021.7 |
| 20260506191005 | 73 | 80 | 6.0 | 16.0 | 0.00 | 0.00 | 0.00 | 29 | 1021.6 |
| 20260506190505 | 73 | 35 | 5.0 | 10.0 | 0.00 | 0.00 | 0.00 | 30 | 1021.7 |
| 20260506190006 | 73 | 28 | 9.0 | 13.0 | 0.00 | 0.00 | 0.00 | 31 | 1021.7 |
| 20260506185504 | 73 | 31 | 7.0 | 13.0 | 0.00 | 0.00 | 0.00 | 32 | 1021.7 |
| 20260506184004 | 72 | 29 | 7.0 | 13.0 | 0.00 | 0.00 | 0.00 | 32 | 1021.8 |
| 20260506183005 | 72 | 93 | 6.0 | 12.0 | 0.00 | 0.00 | 0.00 | 35 | 1021.7 |
| 20260506182504 | 71 | 63 | 5.0 | 14.0 | 0.00 | 0.00 | 0.00 | 34 | 1021.8 |
| 20260506182004 | 71 | 38 | 3.0 | 10.0 | 0.00 | 0.00 | 0.00 | 35 | 1021.8 |
| 20260506181504 | 71 | 63 | 4.0 | 12.0 | 0.00 | 0.00 | 0.00 | 34 | 1021.8 |
| 20260506181005 | 70 | 113 | 5.0 | 14.0 | 0.00 | 0.00 | 0.00 | 34 | 1021.8 |
| 20260506180505 | 70 | 89 | 4.0 | 9.0 | 0.00 | 0.00 | 0.00 | 36 | 1021.8 |
| 20260506180005 | 70 | 74 | 6.0 | 10.0 | 0.00 | 0.00 | 0.00 | 36 | 1021.8 |
| 20260506174504 | 69 | 67 | 6.0 | 12.0 | 0.00 | 0.00 | 0.00 | 37 | 1021.8 |
| 20260506174005 | 68 | 11 | 6.0 | 13.0 | 0.00 | 0.00 | 0.00 | 38 | 1021.7 |
| 20260506173505 | 68 | 37 | 7.0 | 13.0 | 0.00 | 0.00 | 0.00 | 39 | 1021.7 |
| 20260506172505 | 68 | 47 | 6.0 | 13.0 | 0.00 | 0.00 | 0.00 | 41 | 1021.7 |
| 20260506172004 | 68 | 110 | 6.0 | 14.0 | 0.00 | 0.00 | 0.00 | 39 | 1021.6 |
| 20260506171004 | 67 | 50 | 5.0 | 14.0 | 0.00 | 0.00 | 0.00 | 44 | 1021.6 |
| 20260506170504 | 66 | 24 | 5.0 | 12.0 | 0.00 | 0.00 | 0.00 | 42 | 1021.6 |
| 20260506165504 | 66 | 45 | 10.0 | 16.0 | 0.00 | 0.00 | 0.00 | 43 | 1021.7 |
| 20260506165005 | 66 | 17 | 6.0 | 10.0 | 0.00 | 0.00 | 0.00 | 43 | 1021.7 |
| 20260506164504 | 66 | 49 | 9.0 | 13.0 | 0.00 | 0.00 | 0.00 | 43 | 1021.6 |
| 20260506164005 | 65 | 19 | 7.0 | 12.0 | 0.00 | 0.00 | 0.00 | 43 | 1021.6 |
| 20260506163505 | 65 | 37 | 8.0 | 12.0 | 0.00 | 0.00 | 0.00 | 45 | 1021.6 |
| 20260506163005 | 65 | 69 | 5.0 | 10.0 | 0.00 | 0.00 | 0.00 | 46 | 1021.6 |
| 20260506162004 | 64 | 19 | 4.0 | 8.0 | 0.00 | 0.00 | 0.00 | 50 | 1021.7 |
| 20260506161504 | 63 | 96 | 2.0 | 7.0 | 0.00 | 0.00 | 0.00 | 51 | 1021.6 |
| 20260506160505 | 61 | 1 | 0.0 | 3.0 | 0.00 | 0.00 | 0.00 | 59 | 1021.6 |
| 20260506155505 | 60 | 49 | 0.0 | 3.0 | 0.00 | 0.00 | 0.00 | 63 | 1021.6 |
| 20260506155004 | 59 | 334 | 0.0 | 5.0 | 0.00 | 0.00 | 0.00 | 66 | 1021.5 |
| 20260506154505 | 59 | 333 | 0.0 | 2.0 | 0.00 | 0.00 | 0.00 | 65 | 1021.5 |
| 20260506154004 | 58 | 335 | 1.0 | 5.0 | 0.00 | 0.00 | 0.00 | 66 | 1021.5 |
| 20260506153505 | 58 | 191 | 0.0 | 0.0 | 0.00 | 0.00 | 0.00 | 70 | 1021.5 |
| 20260506153005 | 57 | 191 | 0.0 | 0.0 | 0.00 | 0.00 | 0.00 | 70 | 1021.4 |
| 20260506152504 | 57 | 191 | 0.0 | 0.0 | 0.00 | 0.00 | 0.00 | 70 | 1021.4 |
| 20260506152004 | 56 | 191 | 0.0 | 0.0 | 0.00 | 0.00 | 0.00 | 71 | 1021.5 |
| 20260506151505 | 56 | 191 | 0.0 | 0.0 | 0.00 | 0.00 | 0.00 | 73 | 1021.6 |
| 20260506151004 | 55 | 191 | 0.0 | 0.0 | 0.00 | 0.00 | 0.00 | 73 | 1021.5 |
| 20260506150505 | 55 | 191 | 0.0 | 0.0 | 0.00 | 0.00 | 0.00 | 74 | 1021.4 |
| 20260506150005 | 54 | 191 | 0.0 | 0.0 | 0.00 | 0.00 | 0.00 | 76 | 1021.5 |
| 20260506145505 | 54 | 191 | 0.0 | 0.0 | 0.00 | 0.00 | 0.00 | 77 | 1021.5 |
| 20260506145005 | 54 | 191 | 0.0 | 0.0 | 0.00 | 0.00 | 0.00 | 77 | 1021.4 |
| 20260506144504 | 53 | 191 | 0.0 | 0.0 | 0.00 | 0.00 | 0.00 | 79 | 1021.4 |
| 20260506144005 | 52 | 191 | 0.0 | 0.0 | 0.00 | 0.00 | 0.00 | 80 | 1021.4 |
| 20260506143505 | 52 | 191 | 0.0 | 0.0 | 0.00 | 0.00 | 0.00 | 82 | 1021.2 |
| 20260506143004 | 51 | 191 | 0.0 | 0.0 | 0.00 | 0.00 | 0.00 | 84 | 1021.1 |
| 20260506142504 | 50 | 191 | 0.0 | 1.0 | 0.00 | 0.00 | 0.00 | 86 | 1021.2 |
| 20260506142004 | 50 | 195 | 1.0 | 1.0 | 0.00 | 0.00 | 0.00 | 87 | 1021.1 |
| 20260506141505 | 49 | 130 | 0.0 | 0.0 | 0.00 | 0.00 | 0.00 | 89 | 1021.0 |
| 20260506141004 | 48 | 130 | 0.0 | 0.0 | 0.00 | 0.00 | 0.00 | 91 | 1021.0 |
| 20260506140505 | 47 | 130 | 0.0 | 0.0 | 0.00 | 0.00 | 0.00 | 93 | 1021.0 |
| 20260506140005 | 46 | 130 | 0.0 | 0.0 | 0.00 | 0.00 | 0.00 | 94 | 1020.9 |
| 20260506135505 | 45 | 130 | 0.0 | 0.0 | 0.00 | 0.00 | 0.00 | 94 | 1020.9 |
| 20260506135004 | 44 | 130 | 0.0 | 0.0 | 0.00 | 0.00 | 0.00 | 94 | 1020.9 |
| 20260506134504 | 43 | 130 | 0.0 | 0.0 | 0.00 | 0.00 | 0.00 | 94 | 1020.7 |
| 20260506134004 | 43 | 130 | 0.0 | 0.0 | 0.00 | 0.00 | 0.00 | 94 | 1020.6 |
| 20260506133004 | 43 | 130 | 0.0 | 0.0 | 0.00 | 0.00 | 0.00 | 94 | 1020.4 |
| 20260506132005 | 43 | 130 | 0.0 | 0.0 | 0.00 | 0.00 | 0.00 | 94 | 1020.3 |
| 20260506131505 | 43 | 130 | 0.0 | 0.0 | 0.00 | 0.00 | 0.00 | 94 | 1020.3 |
| 20260506131004 | 43 | 130 | 0.0 | 0.0 | 0.00 | 0.00 | 0.00 | 94 | 1020.2 |
| 20260506130504 | 43 | 130 | 0.0 | 0.0 | 0.00 | 0.00 | 0.00 | 94 | 1020.0 |
| 20260506125504 | 43 | 130 | 0.0 | 0.0 | 0.00 | 0.00 | 0.00 | 93 | 1019.9 |
| 20260506125005 | 43 | 130 | 0.0 | 0.0 | 0.00 | 0.00 | 0.00 | 93 | 1019.8 |
| 20260506124504 | 43 | 130 | 0.0 | 0.0 | 0.00 | 0.00 | 0.00 | 93 | 1019.8 |
| 20260506123504 | 43 | 130 | 0.0 | 0.0 | 0.00 | 0.00 | 0.00 | 93 | 1019.7 |
| 20260506123005 | 43 | 130 | 0.0 | 0.0 | 0.00 | 0.00 | 0.00 | 93 | 1019.6 |
| 20260506122504 | 43 | 130 | 0.0 | 0.0 | 0.00 | 0.00 | 0.00 | 93 | 1019.6 |
| 20260506122005 | 43 | 130 | 0.0 | 0.0 | 0.00 | 0.00 | 0.00 | 93 | 1019.4 |
| 20260506121504 | 43 | 130 | 0.0 | 0.0 | 0.00 | 0.00 | 0.00 | 93 | 1019.4 |
| 20260506121005 | 43 | 130 | 0.0 | 0.0 | 0.00 | 0.00 | 0.00 | 92 | 1019.3 |
| 20260506120504 | 44 | 130 | 0.0 | 0.0 | 0.00 | 0.00 | 0.00 | 92 | 1019.3 |
| 20260506120005 | 44 | 130 | 0.0 | 0.0 | 0.00 | 0.00 | 0.00 | 92 | 1019.2 |
| 20260506115505 | 44 | 130 | 0.0 | 0.0 | 0.00 | 0.00 | 0.00 | 92 | 1019.2 |
| 20260506115004 | 44 | 130 | 0.0 | 0.0 | 0.00 | 0.00 | 0.00 | 92 | 1019.1 |
| 20260506114005 | 44 | 130 | 0.0 | 0.0 | 0.00 | 0.00 | 0.00 | 92 | 1019.0 |
| 20260506113504 | 44 | 130 | 0.0 | 0.0 | 0.00 | 0.00 | 0.00 | 91 | 1018.9 |
| 20260506113004 | 44 | 130 | 0.0 | 0.0 | 0.00 | 0.00 | 0.00 | 91 | 1018.8 |
| 20260506112504 | 44 | 130 | 0.0 | 0.0 | 0.00 | 0.00 | 0.00 | 91 | 1018.8 |
| 20260506112004 | 44 | 130 | 0.0 | 0.0 | 0.00 | 0.00 | 0.00 | 91 | 1018.7 |
| 20260506111004 | 45 | 130 | 0.0 | 0.0 | 0.00 | 0.00 | 0.00 | 91 | 1018.6 |
| 20260506110504 | 44 | 130 | 0.0 | 0.0 | 0.00 | 0.00 | 0.00 | 91 | 1018.6 |
| 20260506110004 | 45 | 130 | 0.0 | 0.0 | 0.00 | 0.00 | 0.00 | 90 | 1018.5 |
| 20260506105504 | 45 | 130 | 0.0 | 0.0 | 0.00 | 0.01 | 0.00 | 90 | 1018.4 |
| 20260506105004 | 45 | 130 | 0.0 | 0.0 | 0.00 | 0.01 | 0.00 | 90 | 1018.3 |
| 20260506104004 | 45 | 130 | 0.0 | 0.0 | 0.00 | 0.01 | 0.00 | 89 | 1018.2 |
| 20260506103504 | 45 | 130 | 0.0 | 0.0 | 0.00 | 0.01 | 0.00 | 89 | 1018.1 |
| 20260506102504 | 46 | 130 | 0.0 | 0.0 | 0.00 | 0.01 | 0.00 | 90 | 1018.1 |
| 20260506102004 | 46 | 130 | 0.0 | 0.0 | 0.00 | 0.01 | 0.00 | 89 | 1017.9 |
| 20260506101504 | 46 | 130 | 0.0 | 0.0 | 0.00 | 0.01 | 0.00 | 90 | 1017.9 |
| 20260506101004 | 46 | 130 | 0.0 | 0.0 | 0.00 | 0.01 | 0.00 | 90 | 1017.9 |
| 20260506100505 | 46 | 130 | 0.0 | 0.0 | 0.00 | 0.01 | 0.00 | 91 | 1017.9 |
| 20260506100004 | 46 | 130 | 0.0 | 0.0 | 0.00 | 0.01 | 0.00 | 91 | 1017.8 |
| 20260506095505 | 46 | 130 | 0.0 | 0.0 | 0.00 | 0.01 | 0.00 | 91 | 1017.6 |
| 20260506095004 | 46 | 130 | 0.0 | 0.0 | 0.00 | 0.01 | 0.00 | 91 | 1017.7 |
| 20260506094504 | 46 | 130 | 0.0 | 0.0 | 0.00 | 0.01 | 0.00 | 91 | 1017.5 |
| 20260506094005 | 46 | 130 | 0.0 | 0.0 | 0.00 | 0.01 | 0.00 | 90 | 1017.5 |
| 20260506092504 | 47 | 130 | 0.0 | 0.0 | 0.00 | 0.01 | 0.00 | 89 | 1017.5 |
| 20260506092005 | 47 | 130 | 0.0 | 0.0 | 0.00 | 0.01 | 0.00 | 88 | 1017.5 |
| 20260506091504 | 48 | 130 | 0.0 | 0.0 | 0.00 | 0.01 | 0.00 | 88 | 1017.5 |
| 20260506091004 | 48 | 130 | 0.0 | 0.0 | 0.00 | 0.01 | 0.00 | 88 | 1017.4 |